Regional Weather Roundup
Issued by NWS

Home | Current Version | Previous Version | Graphics & Text | Print | Product List | Glossary On
Versions: 1 2 3 4 5 6 7 8 9 10 11 12 13 14 15 16 17 18 19 20 21 22 23 24 25 26 27 28 29 30 31 32 33 34 35 36 37 38 39 40 41 42 43 44 45 46 47 48 49 50
000
ASUS43 KMPX 291801
RWRMN
WEATHER ROUNDUP FOR MINNESOTA
NATIONAL WEATHER SERVICE TWIN CITIES/CHANHASSEN MN
100 PM CDT SUN MAR 29 2015


NOTE: "FAIR" INDICATES FEW OR NO CLOUDS BELOW 12,000 FEET WITH NO
SIGNIFICANT WEATHER AND/OR OBSTRUCTIONS TO VISIBILITY. N/A MEANS
CURRENT SKY AND/OR WEATHER CONDITIONS ARE NOT AVAILABLE.

MNZ060>063-068>070-291900-
   Twin Cities Metro

CITY           SKY/WX    TMP DP  RH WIND       PRES   REMARKS
TWIN CITIES    LGT RAIN  40  37  89 W17G24    29.68R
6HR MIN TEMP:  35; 6HR MAX TEMP:  46; 6HR PCP:  0.08;

ST PAUL        LGT RAIN  39  35  86 NW15G30   29.68R
CRYSTAL        CLOUDY    42  38  85 W15G24    29.66R
BLAINE         CLOUDY    39  39 100 W17       29.65R
LAKEVILLE      LGT RAIN  39  37  93 W20G26    29.69R
EDEN PRAIRIE   CLOUDY    43  37  79 NW22G32   29.67R
6HR MIN TEMP:  36; 6HR MAX TEMP:  47; 6HR PCP:  0.06;

SOUTH ST PAUL  LGT RAIN  39  37  92 NW21G36   29.67R
LAKE ELMO      RAIN      37  36  93 NW18G33   29.67R
$$
MNZ001>005-007-008-013>017-022>024-027-028-291900-
   Northwest Minnesota

CITY           SKY/WX    TMP DP  RH WIND       PRES   REMARKS
BEMIDJI        PTSUNNY   42  31  65 NW26G37   29.71R
HALLOCK        PTSUNNY   46  37  71 NW25G31   29.83S
ROSEAU         MOSUNNY   43  34  70 NW23G33   29.75R
WARROAD        PTSUNNY   43  34  70 NW23G35   29.74R
THIEF RVR FALL PTSUNNY   43  34  70 NW31G38   29.81R
CROOKSTON      MOSUNNY   46  36  66 N30G38    29.85R
FOSSTON        PTSUNNY   39  34  81 NW23G32   29.80R
DETROIT LAKES  MOSUNNY   43  34  70 NW29G45   29.81R
MOORHEAD       MOSUNNY   50  37  62 N31G37    29.86R
PARK RAPIDS    MOSUNNY   45  31  58 NW25G39   29.73R
MAHNOMEN       MOCLDY    42  35  76 NW36      29.80R
$$
MNZ006-009>011-018-025>026-291900-
   North Central Minnesota

CITY           SKY/WX    TMP DP  RH WIND       PRES   REMARKS
BAUDETTE       CLOUDY    38  32  79 NW29G35   29.69R
FLAG ISLAND    CLOUDY    37  28  70 NW26G35   29.70R
INTL FALLS     CLOUDY    37  34  87 NW20G30   29.60R
6HR MIN TEMP:  33; 6HR MAX TEMP:  38; 6HR PCP:  0.05;

WASKISH        LGT RAIN  37  34  87 NW24      29.70R
BIG FORK       LGT RAIN  36  32  87 NW10G22   29.63R
LONGVILLE      PTSUNNY   39  34  81 NW17G25   29.68R
GRAND RAPIDS   CLOUDY    37  30  75 NW23G29   29.62R
CRANE LAKE     CLOUDY    36  34  93 NW14G25   29.55R
ORR            FLURRIES  36  32  87 NW13G22   29.54R
COOK           DRIZZLE   37  34  87 NW15G24   29.56R
WALKER         CLOUDY    42  32  68 NW17G28   29.69R
$$
MNZ012-019>021-037-291900-
   Northeast Minnesota

CITY           SKY/WX    TMP DP  RH WIND       PRES   REMARKS
DULUTH         CLOUDY    39  34  82 NW20G31   29.49R
6HR MIN TEMP:  34; 6HR MAX TEMP:  39; 6HR PCP:  0.08;

ELY            CLOUDY    36  34  93 NW16G25   29.48R
HIBBING        LGT RAIN  37  33  85 NW24G33   29.55R
EVELETH        LGT RAIN  36  34  93 NW10G24   29.54R
DULUTH HARBOR  CLOUDY    36  34  93 W12       29.53R
TWO HARBORS    DRIZZLE   39  34  81 NW7       29.45S
SILVER BAY     LGT RAIN  37  36  93 W9        29.43S
GRAND MARAIS     N/A     32  32 100 W9        29.43F WCI  24
G MARAIS ARPRT SNOW      30  27  86 W5        29.38F VSB 1/2 WCI  25
$$
MNZ029>031-032-039>041-046>048-054>057-064-291900-
   West Central Minnesota

CITY           SKY/WX    TMP DP  RH WIND       PRES   REMARKS
FERGUS FALLS   MOSUNNY   46  32  57 N36G47    29.85S
WHEATON        SUNNY     48  32  53 NW30G39   29.89R
MORRIS         MOSUNNY   48  36  61 NW35G45   29.83R
ALEXANDRIA     MOSUNNY   45  32  60 NW24G38   29.80R
ELBOW LAKE     FAIR      45  35  67 NW26G37   29.82R
WADENA         MOSUNNY   43  32  65 NW28G40   29.76R
GLENWOOD       SUNNY     45  34  65 NW37G45   29.79R
APPLETON       SUNNY     52  36  54 NW29G40   29.86R
BENSON         MOSUNNY   50  34  53 N39G46    29.83R
ORTONVILLE     MOSUNNY   50  32  50 NW24G37   29.88R
MADISON        MOSUNNY   52  32  46 NW35G44   29.89R
WILLMAR        FAIR      48  34  57 NW39G48   29.81R
$$
MNZ033>034-036-042>043-049>051-058-059-291900-
   Central Minnesota

CITY           SKY/WX    TMP DP  RH WIND       PRES   REMARKS
ST CLOUD       PTSUNNY   46  37  71 NW26G40   29.69R
6HR MIN TEMP:  35; 6HR MAX TEMP:  46; 6HR PCP:  0.12;

SAUK CENTRE    FAIR      43  32  65 NW28G40   29.76R
PAYNESVILLE    PTSUNNY   41  34  77 W23G35    29.77R
AITKIN         CLOUDY    43  36  75 NW15G25   29.64R
PINE RIVER     MOSUNNY   45  32  61 NW16G25   29.72R
BRAINERD       PTSUNNY   44  32  62 NW28G39   29.68R
STAPLES        MOSUNNY   43  32  65 NW26G35   29.73R
LONG PRAIRIE   FAIR      43  32  65 W30       29.75R
LITTLE FALLS   PTSUNNY   45  34  65 W22G30    29.71R
LITCHFIELD     MOSUNNY   46  37  71 NW20G40   29.76R
MAPLE LAKE     CLOUDY    45  39  79 NW21G31   29.71R
$$
MNZ037-044-045-052-053-291900-
   East Central Minnesota

CITY           SKY/WX    TMP DP  RH WIND       PRES   REMARKS
PRINCETON      CLOUDY    46  39  76 NW20G35   29.66R
MORA           CLOUDY    41  36  81 NW25G32   29.63R
CAMBRIDGE      CLOUDY    43  36  75 W13G21    29.62R
RUSH CITY      CLOUDY    38  36  92 W9        29.62R
MOOSE LAKE     CLOUDY    39  34  81 NW16G29   29.56R
HINCKLEY       CLOUDY    39  37  93 NW13      29.60R
CLOQUET        CLOUDY    37  36  93 NW20      29.53R
MCGREGOR       CLOUDY    37  34  87 NW18G31   29.62R
$$
MNZ071>073-080-081-089-090-097-098-291900-
   Southwest Minnesota

CITY           SKY/WX    TMP DP  RH WIND       PRES   REMARKS
MONTEVIDEO     MOSUNNY   52  37  58 N35G43    29.85R
GRANITE FALLS  MOSUNNY   50  35  56 NW30G41   29.87R
CANBY          SUNNY     52  33  47 NW24G37   29.91R
REDWOOD FALLS  MOSUNNY   50  35  56 NW33G46   29.82R
OLIVIA         MOSUNNY   46  37  71 NW33G44   29.81R
PIPESTONE      SUNNY     52  30  43 N31G45    29.91R
WINDOM         MOSUNNY   50  34  53 NW40G49   29.84R
JACKSON        MOSUNNY   50  34  53 NW39G49   29.84R
TRACY          MOSUNNY   52  37  54 NW36G45   29.87R
SLAYTON        MOSUNNY   50  30  45 NW36G43   29.88R
$$
MNZ065>067-074>077-082>085-091>093-291900-
   South Central Minnesota

CITY           SKY/WX    TMP DP  RH WIND       PRES   REMARKS
NEW ULM        PTSUNNY   48  37  66 NW33G46   29.77R
ST JAMES       MOSUNNY   50  37  62 NW33G51   29.81R
FAIRMONT       CLOUDY    50  36  57 NW29G37   29.80R
GLENCOE        PTSUNNY   46  40  78 NW31G37   29.73R
FARIBAULT      CLOUDY    43  37  81 W20G36    29.71R
OWATONNA       CLOUDY    43  36  75 W26G47    29.73R
WASECA         DRIZZLE   43  37  81 NW32G41   29.74R
ALBERT LEA     CLOUDY    46  39  76 W16G29    29.73R
$$
MNZ078>079-086>088-094>096-291900-
   Southeast Minnesota

CITY           SKY/WX    TMP DP  RH WIND       PRES   REMARKS
ROCHESTER      CLOUDY    41  36  82 W30G44    29.67R
6HR MIN TEMP:  32; 6HR MAX TEMP:  42;

RED WING       RAIN      45  39  81 W24G36    29.61R
STANTON        LGT RAIN  40  36  86 NW24G35   29.68R
DODGE CENTER   CLOUDY    41  36  81 W28G40    29.69R
WINONA         CLOUDY    46  37  71 SW10      29.62F
AUSTIN         CLOUDY    45  37  76 NW30G40   29.72R
PRESTON        CLOUDY    44  37  78 W24       29.68R
$$
ABBREVIATIONS USED IN REMARKS
   TC - TEMPERATURES IN CELSIUS
  WCI - WIND CHILL INDEX
   HX - HEAT INDEX
  VSB - VISIBILITY
$$



USA.gov is the U.S. government's official web portal to all federal, state and local government web resources and services.